Location: Brissac
(47.3500°N, 0.4500°W)
Time: 16:21:32
(UTC+02:00)

ISS - Pass Details

Date: 20 May 2021
Orbit: 419 x 422 km, 51.6° (Epoch: 25 June)

Event Time Altitude Azimuth Distance (km) Brightness Sun altitude
Rises 01:09:16 0° 290° (WNW) 2,374 0.5 -21.8°
Reaches altitude 10° 01:11:26 10° 297° (WNW) 1,509 -0.5 -21.8°
Maximum altitude 01:14:42 44° 11° (NNE) 592 -2.7 -22.0°
Enters shadow 01:15:39 34° 56° (NE) 717 -2.5 -22.0°
